| time (UTC) | temp F | wind direction | speed MPH | gust MPH | rain 1hr in | rain 24hr in | rain mn in | humidity % | barometer mb |
| 20260510112553 | 50 | 329 | 3.0 | 16.0 | 0.00 | 0.05 | 0.00 | 69 | 1007.5 |
| 20260510112051 | 49 | 279 | 2.0 | 16.0 | 0.00 | 0.05 | 0.00 | 69 | 1007.4 |
| 20260510111551 | 49 | 268 | 5.0 | 13.0 | 0.00 | 0.05 | 0.00 | 69 | 1007.4 |
| 20260510111051 | 49 | 306 | 4.0 | 13.0 | 0.00 | 0.05 | 0.00 | 69 | 1007.3 |
| 20260510110555 | 49 | 282 | 4.0 | 12.0 | 0.00 | 0.05 | 0.00 | 69 | 1007.1 |
| 20260510110050 | 49 | 310 | 3.0 | 10.0 | 0.00 | 0.05 | 0.00 | 70 | 1007.1 |
| 20260510105550 | 48 | 307 | 3.0 | 10.0 | 0.00 | 0.05 | 0.00 | 70 | 1007.0 |
| 20260510105050 | 48 | 313 | 2.0 | 9.0 | 0.00 | 0.05 | 0.00 | 71 | 1006.9 |
| 20260510104602 | 48 | 281 | 2.0 | 9.0 | 0.00 | 0.05 | 0.00 | 71 | 1006.7 |
| 20260510104049 | 48 | 288 | 1.0 | 11.0 | 0.00 | 0.05 | 0.00 | 71 | 1006.6 |
| 20260510103552 | 47 | 292 | 3.0 | 11.0 | 0.00 | 0.05 | 0.00 | 70 | 1006.5 |
| 20260510103059 | 47 | 292 | 2.0 | 8.0 | 0.00 | 0.05 | 0.00 | 70 | 1006.5 |
| 20260510102552 | 47 | 279 | 1.0 | 9.0 | 0.00 | 0.05 | 0.00 | 71 | 1006.4 |
| 20260510102051 | 47 | 300 | 1.0 | 9.0 | 0.00 | 0.05 | 0.00 | 70 | 1006.3 |
| 20260510101555 | 47 | 284 | 0.0 | 5.0 | 0.00 | 0.05 | 0.00 | 70 | 1006.2 |
| 20260510101052 | 48 | 0 | 1.0 | 7.0 | 0.00 | 0.05 | 0.00 | 70 | 1006.2 |
| 20260510100554 | 48 | 295 | 0.0 | 7.0 | 0.00 | 0.05 | 0.00 | 70 | 1006.0 |
| 20260510100058 | 48 | 295 | 1.0 | 7.0 | 0.00 | 0.05 | 0.00 | 70 | 1006.0 |
| 20260510095551 | 48 | 289 | 2.0 | 9.0 | 0.00 | 0.05 | 0.00 | 70 | 1005.9 |
| 20260510095051 | 48 | 0 | 2.0 | 9.0 | 0.00 | 0.05 | 0.00 | 69 | 1005.7 |
| 20260510094611 | 48 | 318 | 1.0 | 11.0 | 0.00 | 0.05 | 0.00 | 70 | 1005.5 |
| 20260510094054 | 48 | 0 | 2.0 | 11.0 | 0.00 | 0.05 | 0.00 | 69 | 1005.5 |
| 20260510093551 | 49 | 0 | 2.0 | 11.0 | 0.00 | 0.05 | 0.00 | 70 | 1005.3 |
| 20260510093119 | 49 | 296 | 1.0 | 8.0 | 0.00 | 0.05 | 0.00 | 70 | 1005.2 |
| 20260510092552 | 49 | 0 | 1.0 | 8.0 | 0.00 | 0.05 | 0.00 | 71 | 1005.2 |
| 20260510092051 | 49 | 280 | 2.0 | 8.0 | 0.00 | 0.05 | 0.00 | 72 | 1005.1 |
| 20260510091602 | 49 | 0 | 1.0 | 8.0 | 0.00 | 0.05 | 0.00 | 73 | 1005.1 |
| 20260510091052 | 49 | 288 | 1.0 | 12.0 | 0.00 | 0.05 | 0.00 | 74 | 1005.0 |
| 20260510090552 | 49 | 283 | 0.0 | 12.0 | 0.00 | 0.05 | 0.00 | 75 | 1005.0 |
| 20260510090055 | 50 | 273 | 1.0 | 9.0 | 0.00 | 0.05 | 0.00 | 76 | 1004.9 |
| 20260510085554 | 50 | 286 | 1.0 | 9.0 | 0.00 | 0.05 | 0.00 | 77 | 1004.8 |
| 20260510085051 | 50 | 275 | 1.0 | 11.0 | 0.00 | 0.05 | 0.00 | 79 | 1004.7 |
| 20260510084559 | 50 | 293 | 1.0 | 11.0 | 0.00 | 0.05 | 0.00 | 80 | 1004.7 |
| 20260510084051 | 50 | 323 | 1.0 | 15.0 | 0.00 | 0.05 | 0.00 | 81 | 1004.7 |
| 20260510083551 | 50 | 292 | 2.0 | 15.0 | 0.00 | 0.05 | 0.00 | 81 | 1004.6 |
| 20260510083059 | 50 | 282 | 1.0 | 10.0 | 0.00 | 0.05 | 0.00 | 82 | 1004.5 |
| 20260510082550 | 50 | 281 | 2.0 | 12.0 | 0.00 | 0.05 | 0.00 | 83 | 1004.5 |
| 20260510082051 | 50 | 271 | 2.0 | 12.0 | 0.00 | 0.05 | 0.00 | 83 | 1004.5 |
| 20260510081553 | 50 | 276 | 1.0 | 10.0 | 0.00 | 0.05 | 0.00 | 84 | 1004.5 |
| 20260510081056 | 50 | 286 | 0.0 | 9.0 | 0.00 | 0.05 | 0.00 | 85 | 1004.4 |
| 20260510080548 | 50 | 0 | 2.0 | 9.0 | 0.00 | 0.05 | 0.00 | 85 | 1004.4 |
| 20260510080054 | 50 | 266 | 1.0 | 9.0 | 0.00 | 0.05 | 0.00 | 85 | 1004.4 |
| 20260510075550 | 51 | 0 | 2.0 | 9.0 | 0.00 | 0.05 | 0.00 | 86 | 1004.4 |
| 20260510075051 | 51 | 274 | 1.0 | 9.0 | 0.00 | 0.05 | 0.00 | 86 | 1004.3 |
| 20260510074555 | 51 | 271 | 2.0 | 8.0 | 0.00 | 0.05 | 0.00 | 86 | 1004.3 |
| 20260510074053 | 51 | 268 | 1.0 | 6.0 | 0.00 | 0.05 | 0.00 | 86 | 1004.3 |
| 20260510073551 | 51 | 233 | 2.0 | 7.0 | 0.00 | 0.05 | 0.00 | 86 | 1004.2 |
| 20260510073055 | 51 | 245 | 1.0 | 7.0 | 0.00 | 0.05 | 0.00 | 87 | 1004.2 |
| 20260510072551 | 51 | 276 | 1.0 | 8.0 | 0.00 | 0.05 | 0.00 | 87 | 1004.1 |
| 20260510072052 | 51 | 291 | 1.0 | 8.0 | 0.00 | 0.05 | 0.00 | 87 | 1004.0 |
| 20260510071555 | 51 | 0 | 1.0 | 7.0 | 0.00 | 0.05 | 0.00 | 87 | 1004.0 |
| 20260510071051 | 51 | 265 | 1.0 | 4.0 | 0.00 | 0.05 | 0.00 | 87 | 1003.9 |
| 20260510070554 | 51 | 259 | 1.0 | 6.0 | 0.00 | 0.05 | 0.00 | 87 | 1003.9 |
| 20260510070054 | 51 | 260 | 1.0 | 11.0 | 0.00 | 0.05 | 0.00 | 87 | 1003.8 |
| 20260510065553 | 51 | 237 | 1.0 | 12.0 | 0.00 | 0.05 | 0.00 | 87 | 1003.9 |
| 20260510065051 | 52 | 0 | 2.0 | 12.0 | 0.00 | 0.05 | 0.00 | 87 | 1003.9 |
| 20260510064553 | 52 | 231 | 2.0 | 10.0 | 0.00 | 0.05 | 0.00 | 88 | 1003.8 |
| 20260510064051 | 52 | 319 | 1.0 | 10.0 | 0.00 | 0.05 | 0.00 | 88 | 1003.6 |
| 20260510063553 | 52 | 243 | 1.0 | 7.0 | 0.00 | 0.05 | 0.00 | 87 | 1003.5 |
| 20260510063054 | 52 | 255 | 2.0 | 9.0 | 0.00 | 0.05 | 0.00 | 87 | 1003.5 |
| 20260510062551 | 52 | 294 | 1.0 | 9.0 | 0.00 | 0.05 | 0.00 | 87 | 1003.4 |
| 20260510062051 | 52 | 262 | 1.0 | 4.0 | 0.00 | 0.05 | 0.00 | 87 | 1003.4 |
| 20260510061555 | 52 | 272 | 1.0 | 7.0 | 0.00 | 0.05 | 0.00 | 87 | 1003.4 |
| 20260510061051 | 53 | 0 | 1.0 | 7.0 | 0.00 | 0.05 | 0.00 | 87 | 1003.3 |
| 20260510060551 | 53 | 281 | 1.0 | 8.0 | 0.00 | 0.05 | 0.00 | 87 | 1003.3 |
| 20260510060056 | 53 | 266 | 1.0 | 8.0 | 0.00 | 0.05 | 0.00 | 87 | 1003.3 |
| 20260510055551 | 53 | 259 | 2.0 | 8.0 | 0.00 | 0.05 | 0.00 | 87 | 1003.3 |
| 20260510055051 | 53 | 254 | 2.0 | 7.0 | 0.00 | 0.05 | 0.00 | 87 | 1003.3 |
| 20260510054552 | 53 | 254 | 2.0 | 10.0 | 0.00 | 0.05 | 0.00 | 88 | 1003.3 |
| 20260510054051 | 53 | 227 | 4.0 | 10.0 | 0.00 | 0.05 | 0.00 | 88 | 1003.2 |
| 20260510053550 | 53 | 248 | 3.0 | 9.0 | 0.00 | 0.05 | 0.00 | 88 | 1003.1 |
| 20260510053101 | 53 | 263 | 1.0 | 8.0 | 0.00 | 0.05 | 0.00 | 88 | 1003.1 |
| 20260510052552 | 53 | 265 | 1.0 | 8.0 | 0.00 | 0.05 | 0.00 | 88 | 1003.0 |
| 20260510052051 | 53 | 232 | 2.0 | 8.0 | 0.00 | 0.05 | 0.00 | 88 | 1003.2 |
| 20260510051557 | 53 | 232 | 1.0 | 7.0 | 0.00 | 0.05 | 0.00 | 88 | 1003.1 |
| 20260510051052 | 53 | 260 | 1.0 | 7.0 | 0.00 | 0.05 | 0.00 | 88 | 1003.0 |
| 20260510050555 | 53 | 269 | 1.0 | 7.0 | 0.00 | 0.05 | 0.00 | 88 | 1003.0 |
| 20260510050056 | 53 | 271 | 2.0 | 6.0 | 0.00 | 0.05 | 0.00 | 88 | 1003.0 |
| 20260510045552 | 54 | 236 | 1.0 | 6.0 | 0.00 | 0.05 | 0.00 | 87 | 1003.0 |
| 20260510045141 | 54 | 0 | 1.0 | 6.0 | 0.00 | 0.05 | 0.00 | 87 | 1002.9 |
| 20260510044553 | 54 | 0 | 1.0 | 6.0 | 0.00 | 0.05 | 0.00 | 87 | 1002.8 |
| 20260510044051 | 54 | 232 | 1.0 | 8.0 | 0.00 | 0.05 | 0.00 | 87 | 1002.6 |
| 20260510043551 | 54 | 246 | 1.0 | 8.0 | 0.00 | 0.05 | 0.00 | 87 | 1002.5 |
| 20260510043102 | 54 | 0 | 1.0 | 6.0 | 0.00 | 0.05 | 0.00 | 87 | 1002.4 |
| 20260510042552 | 54 | 0 | 1.0 | 6.0 | 0.00 | 0.05 | 0.00 | 87 | 1002.2 |
| 20260510042054 | 54 | 266 | 1.0 | 6.0 | 0.00 | 0.05 | 0.00 | 87 | 1002.1 |
| 20260510041555 | 54 | 0 | 1.0 | 6.0 | 0.00 | 0.05 | 0.00 | 87 | 1002.2 |
| 20260510041051 | 54 | 276 | 1.0 | 8.0 | 0.00 | 0.05 | 0.00 | 86 | 1001.9 |
| 20260510040551 | 54 | 239 | 1.0 | 8.0 | 0.00 | 0.05 | 0.00 | 86 | 1001.8 |
| 20260510040056 | 54 | 248 | 2.0 | 7.0 | 0.00 | 0.05 | 0.00 | 86 | 1002.0 |
| 20260510035552 | 55 | 248 | 2.0 | 7.0 | 0.00 | 0.05 | 0.05 | 86 | 1001.9 |
| 20260510035055 | 55 | 236 | 2.0 | 7.0 | 0.00 | 0.05 | 0.05 | 86 | 1001.9 |
| 20260510034555 | 55 | 0 | 2.0 | 7.0 | 0.00 | 0.05 | 0.05 | 85 | 1002.0 |
| 20260510034051 | 55 | 241 | 0.0 | 7.0 | 0.02 | 0.05 | 0.05 | 85 | 1002.1 |
| 20260510033550 | 55 | 281 | 1.0 | 5.0 | 0.03 | 0.05 | 0.05 | 85 | 1002.1 |
| 20260510033101 | 55 | 0 | 1.0 | 6.0 | 0.05 | 0.05 | 0.05 | 85 | 1002.1 |
| 20260510032550 | 55 | 281 | 1.0 | 6.0 | 0.05 | 0.05 | 0.05 | 84 | 1002.1 |
| 20260510032051 | 55 | 0 | 1.0 | 7.0 | 0.05 | 0.05 | 0.05 | 84 | 1002.0 |
| 20260510031552 | 55 | 239 | 1.0 | 9.0 | 0.05 | 0.05 | 0.05 | 84 | 1002.1 |
| 20260510031051 | 55 | 242 | 2.0 | 9.0 | 0.05 | 0.05 | 0.05 | 83 | 1001.9 |
| 20260510030551 | 55 | 296 | 2.0 | 8.0 | 0.05 | 0.05 | 0.05 | 82 | 1002.1 |
| 20260510030103 | 55 | 236 | 3.0 | 6.0 | 0.04 | 0.04 | 0.04 | 81 | 1001.9 |
| 20260510025551 | 56 | 225 | 2.0 | 5.0 | 0.04 | 0.04 | 0.04 | 79 | 1001.8 |
| 20260510025051 | 56 | 224 | 2.0 | 7.0 | 0.04 | 0.04 | 0.04 | 78 | 1001.9 |
| 20260510024557 | 57 | 213 | 2.0 | 10.0 | 0.04 | 0.04 | 0.04 | 76 | 1002.1 |
| 20260510024051 | 57 | 213 | 4.0 | 10.0 | 0.03 | 0.03 | 0.03 | 75 | 1002.1 |
| 20260510023552 | 58 | 237 | 2.0 | 8.0 | 0.00 | 0.00 | 0.00 | 74 | 1002.1 |
| 20260510023053 | 58 | 244 | 2.0 | 6.0 | 0.00 | 0.00 | 0.00 | 72 | 1001.8 |
| 20260510022551 | 58 | 224 | 3.0 | 7.0 | 0.00 | 0.00 | 0.00 | 71 | 1001.6 |
| 20260510022051 | 59 | 0 | 2.0 | 8.0 | 0.00 | 0.00 | 0.00 | 69 | 1001.5 |
| 20260510021552 | 59 | 234 | 2.0 | 10.0 | 0.00 | 0.00 | 0.00 | 67 | 1001.2 |
| 20260510021050 | 59 | 220 | 3.0 | 10.0 | 0.00 | 0.00 | 0.00 | 66 | 1001.2 |
| 20260510020551 | 59 | 85 | 2.0 | 16.0 | 0.00 | 0.00 | 0.00 | 65 | 1001.2 |
| 20260510020050 | 60 | 251 | 3.0 | 16.0 | 0.00 | 0.00 | 0.00 | 65 | 1001.3 |
| 20260510015552 | 60 | 220 | 3.0 | 11.0 | 0.00 | 0.00 | 0.00 | 64 | 1001.2 |
| 20260510015051 | 60 | 148 | 2.0 | 9.0 | 0.00 | 0.00 | 0.00 | 64 | 1001.4 |
| 20260510014556 | 60 | 148 | 3.0 | 9.0 | 0.00 | 0.00 | 0.00 | 64 | 1001.6 |
| 20260510014052 | 60 | 204 | 2.0 | 9.0 | 0.00 | 0.00 | 0.00 | 63 | 1001.7 |
| 20260510013551 | 60 | 234 | 2.0 | 9.0 | 0.00 | 0.00 | 0.00 | 63 | 1001.8 |
| 20260510013053 | 60 | 197 | 1.0 | 6.0 | 0.00 | 0.00 | 0.00 | 62 | 1001.8 |
| 20260510012551 | 60 | 166 | 2.0 | 9.0 | 0.00 | 0.00 | 0.00 | 62 | 1001.8 |
| 20260510012051 | 61 | 175 | 2.0 | 9.0 | 0.00 | 0.00 | 0.00 | 61 | 1001.7 |
| 20260510011552 | 61 | 0 | 1.0 | 10.0 | 0.00 | 0.00 | 0.00 | 61 | 1001.8 |
| 20260510011052 | 61 | 176 | 2.0 | 10.0 | 0.00 | 0.00 | 0.00 | 60 | 1001.8 |
| 20260510010551 | 61 | 156 | 1.0 | 9.0 | 0.00 | 0.00 | 0.00 | 60 | 1001.8 |
| 20260510010050 | 61 | 0 | 1.0 | 9.0 | 0.00 | 0.00 | 0.00 | 60 | 1001.8 |
| 20260510005552 | 61 | 156 | 3.0 | 9.0 | 0.00 | 0.00 | 0.00 | 59 | 1001.8 |
| 20260510005051 | 61 | 164 | 1.0 | 9.0 | 0.00 | 0.00 | 0.00 | 59 | 1001.9 |
| 20260510004553 | 62 | 157 | 0.0 | 6.0 | 0.00 | 0.00 | 0.00 | 58 | 1001.8 |
| 20260510004052 | 62 | 0 | 1.0 | 7.0 | 0.00 | 0.00 | 0.00 | 58 | 1001.8 |
| 20260510003552 | 62 | 193 | 0.0 | 7.0 | 0.00 | 0.00 | 0.00 | 58 | 1001.8 |
| 20260510003055 | 62 | 169 | 1.0 | 6.0 | 0.00 | 0.00 | 0.00 | 57 | 1001.8 |
| 20260510002551 | 62 | 161 | 0.0 | 10.0 | 0.00 | 0.00 | 0.00 | 57 | 1001.9 |
| 20260510002051 | 62 | 174 | 1.0 | 10.0 | 0.00 | 0.00 | 0.00 | 56 | 1002.0 |
| 20260510001552 | 62 | 216 | 1.0 | 6.0 | 0.00 | 0.00 | 0.00 | 56 | 1002.1 |
| 20260510001051 | 62 | 195 | 2.0 | 6.0 | 0.00 | 0.00 | 0.00 | 55 | 1002.1 |
| 20260510000554 | 62 | 0 | 2.0 | 5.0 | 0.00 | 0.00 | 0.00 | 55 | 1002.2 |
| 20260510000100 | 62 | 0 | 2.0 | 6.0 | 0.00 | 0.00 | 0.00 | 55 | 1002.4 |
| 20260509235553 | 63 | 222 | 1.0 | 6.0 | 0.00 | 0.00 | 0.00 | 55 | 1002.5 |
| 20260509235051 | 63 | 220 | 2.0 | 7.0 | 0.00 | 0.00 | 0.00 | 55 | 1002.4 |
| 20260509234552 | 63 | 219 | 2.0 | 7.0 | 0.00 | 0.00 | 0.00 | 55 | 1002.5 |
| 20260509234051 | 63 | 232 | 1.0 | 8.0 | 0.00 | 0.00 | 0.00 | 55 | 1002.6 |
| 20260509233550 | 63 | 233 | 2.0 | 10.0 | 0.00 | 0.00 | 0.00 | 54 | 1002.7 |
| 20260509233057 | 63 | 231 | 5.0 | 10.0 | 0.00 | 0.00 | 0.00 | 53 | 1002.7 |
| 20260509232553 | 64 | 228 | 2.0 | 11.0 | 0.00 | 0.00 | 0.00 | 53 | 1002.7 |
| 20260509232052 | 64 | 0 | 2.0 | 11.0 | 0.00 | 0.00 | 0.00 | 53 | 1002.7 |
| 20260509231552 | 64 | 234 | 3.0 | 11.0 | 0.00 | 0.00 | 0.00 | 52 | 1002.7 |
| 20260509231052 | 64 | 229 | 4.0 | 14.0 | 0.00 | 0.00 | 0.00 | 51 | 1002.6 |
| 20260509230554 | 64 | 247 | 5.0 | 14.0 | 0.00 | 0.00 | 0.00 | 51 | 1002.6 |
| 20260509230056 | 65 | 230 | 4.0 | 13.0 | 0.00 | 0.00 | 0.00 | 50 | 1002.5 |
| 20260509225551 | 65 | 186 | 2.0 | 9.0 | 0.00 | 0.00 | 0.00 | 47 | 1002.4 |
| 20260509225050 | 65 | 216 | 3.0 | 10.0 | 0.00 | 0.00 | 0.00 | 45 | 1002.3 |
| 20260509224552 | 65 | 249 | 4.0 | 10.0 | 0.00 | 0.00 | 0.00 | 43 | 1002.3 |
| 20260509224051 | 65 | 261 | 1.0 | 9.0 | 0.00 | 0.00 | 0.00 | 43 | 1002.3 |
| 20260509223554 | 65 | 234 | 2.0 | 11.0 | 0.00 | 0.00 | 0.00 | 42 | 1002.2 |
| 20260509223056 | 65 | 235 | 2.0 | 11.0 | 0.00 | 0.00 | 0.00 | 42 | 1002.1 |
| 20260509222551 | 65 | 232 | 2.0 | 9.0 | 0.00 | 0.00 | 0.00 | 42 | 1002.1 |
| 20260509222050 | 65 | 236 | 3.0 | 7.0 | 0.00 | 0.00 | 0.00 | 42 | 1002.2 |
| 20260509221553 | 65 | 224 | 1.0 | 5.0 | 0.00 | 0.00 | 0.00 | 42 | 1002.1 |
| 20260509221053 | 66 | 224 | 3.0 | 7.0 | 0.00 | 0.00 | 0.00 | 42 | 1002.0 |
| 20260509220552 | 66 | 256 | 2.0 | 7.0 | 0.00 | 0.00 | 0.00 | 41 | 1001.9 |
| 20260509220052 | 66 | 215 | 3.0 | 9.0 | 0.00 | 0.00 | 0.00 | 42 | 1001.9 |
| 20260509215551 | 66 | 226 | 3.0 | 9.0 | 0.00 | 0.00 | 0.00 | 41 | 1002.0 |
| 20260509215051 | 66 | 145 | 4.0 | 7.0 | 0.00 | 0.00 | 0.00 | 41 | 1002.2 |
| 20260509214610 | 66 | 228 | 2.0 | 7.0 | 0.00 | 0.00 | 0.00 | 40 | 1002.3 |
| 20260509214050 | 67 | 232 | 3.0 | 7.0 | 0.00 | 0.00 | 0.00 | 39 | 1002.3 |
| 20260509213550 | 67 | 186 | 3.0 | 12.0 | 0.00 | 0.00 | 0.00 | 38 | 1002.3 |
| 20260509213051 | 67 | 226 | 3.0 | 12.0 | 0.00 | 0.00 | 0.00 | 37 | 1002.4 |
| 20260509212551 | 67 | 217 | 4.0 | 12.0 | 0.00 | 0.00 | 0.00 | 37 | 1002.4 |
| 20260509212052 | 67 | 185 | 3.0 | 12.0 | 0.00 | 0.00 | 0.00 | 37 | 1002.5 |
| 20260509211550 | 67 | 230 | 3.0 | 12.0 | 0.00 | 0.00 | 0.00 | 36 | 1002.4 |
| 20260509211051 | 67 | 234 | 3.0 | 10.0 | 0.00 | 0.00 | 0.00 | 36 | 1002.4 |
| 20260509210551 | 67 | 211 | 3.0 | 13.0 | 0.00 | 0.00 | 0.00 | 35 | 1002.4 |
| 20260509205550 | 67 | 170 | 3.0 | 8.0 | 0.00 | 0.00 | 0.00 | 34 | 1002.4 |
| 20260509205052 | 67 | 214 | 2.0 | 9.0 | 0.00 | 0.00 | 0.00 | 34 | 1002.6 |
| 20260509204556 | 67 | 0 | 3.0 | 11.0 | 0.00 | 0.00 | 0.00 | 33 | 1002.4 |
| 20260509204052 | 68 | 194 | 3.0 | 11.0 | 0.00 | 0.00 | 0.00 | 31 | 1002.6 |
| 20260509203553 | 69 | 229 | 3.0 | 10.0 | 0.00 | 0.00 | 0.00 | 30 | 1002.7 |
| 20260509203107 | 68 | 221 | 5.0 | 11.0 | 0.00 | 0.00 | 0.00 | 29 | 1002.6 |
| 20260509202552 | 69 | 215 | 3.0 | 11.0 | 0.00 | 0.00 | 0.00 | 29 | 1002.5 |
| 20260509202053 | 69 | 207 | 2.0 | 11.0 | 0.00 | 0.00 | 0.00 | 29 | 1002.7 |
| 20260509201553 | 69 | 225 | 3.0 | 9.0 | 0.00 | 0.00 | 0.00 | 27 | 1002.8 |
| 20260509201053 | 69 | 239 | 3.0 | 10.0 | 0.00 | 0.00 | 0.00 | 27 | 1002.8 |
| 20260509200552 | 69 | 216 | 3.0 | 11.0 | 0.00 | 0.00 | 0.00 | 27 | 1002.8 |
| 20260509200055 | 69 | 215 | 3.0 | 11.0 | 0.00 | 0.00 | 0.00 | 27 | 1002.8 |
| 20260509195552 | 69 | 213 | 3.0 | 17.0 | 0.00 | 0.00 | 0.00 | 27 | 1002.8 |
| 20260509195052 | 69 | 182 | 5.0 | 17.0 | 0.00 | 0.00 | 0.00 | 27 | 1002.9 |
| 20260509194556 | 69 | 225 | 3.0 | 12.0 | 0.00 | 0.00 | 0.00 | 26 | 1002.9 |
| 20260509194051 | 69 | 214 | 3.0 | 12.0 | 0.00 | 0.00 | 0.00 | 25 | 1003.0 |
| 20260509193549 | 69 | 230 | 3.0 | 10.0 | 0.00 | 0.00 | 0.00 | 26 | 1003.2 |
| 20260509193106 | 69 | 194 | 4.0 | 16.0 | 0.00 | 0.00 | 0.00 | 24 | 1003.1 |
| 20260509192553 | 69 | 172 | 4.0 | 17.0 | 0.00 | 0.00 | 0.00 | 25 | 1003.0 |
| 20260509192053 | 69 | 207 | 4.0 | 17.0 | 0.00 | 0.00 | 0.00 | 25 | 1003.1 |
| 20260509191603 | 69 | 197 | 2.0 | 19.0 | 0.00 | 0.00 | 0.00 | 25 | 1003.2 |
| 20260509191053 | 69 | 198 | 7.0 | 19.0 | 0.00 | 0.00 | 0.00 | 25 | 1003.3 |
| 20260509190555 | 69 | 175 | 4.0 | 9.0 | 0.00 | 0.00 | 0.00 | 25 | 1003.3 |
| 20260509190056 | 69 | 184 | 3.0 | 10.0 | 0.00 | 0.00 | 0.00 | 26 | 1003.4 |
| 20260509185551 | 69 | 130 | 4.0 | 10.0 | 0.00 | 0.00 | 0.00 | 26 | 1003.7 |
| 20260509185050 | 69 | 221 | 3.0 | 8.0 | 0.00 | 0.00 | 0.00 | 25 | 1003.6 |
| 20260509184600 | 69 | 230 | 3.0 | 10.0 | 0.00 | 0.00 | 0.00 | 25 | 1003.8 |
| 20260509184050 | 69 | 217 | 4.0 | 10.0 | 0.00 | 0.00 | 0.00 | 26 | 1003.7 |
| 20260509183552 | 69 | 254 | 3.0 | 8.0 | 0.00 | 0.00 | 0.00 | 25 | 1003.9 |
| 20260509183059 | 68 | 229 | 1.0 | 9.0 | 0.00 | 0.00 | 0.00 | 25 | 1004.1 |
| 20260509182555 | 68 | 214 | 3.0 | 10.0 | 0.00 | 0.00 | 0.00 | 26 | 1004.4 |
| 20260509182051 | 68 | 203 | 2.0 | 10.0 | 0.00 | 0.00 | 0.00 | 25 | 1004.3 |
| 20260509181552 | 68 | 223 | 4.0 | 9.0 | 0.00 | 0.00 | 0.00 | 26 | 1004.4 |
| 20260509181052 | 68 | 215 | 3.0 | 9.0 | 0.00 | 0.00 | 0.00 | 24 | 1004.4 |
| 20260509180552 | 69 | 226 | 1.0 | 8.0 | 0.00 | 0.00 | 0.00 | 25 | 1004.4 |
| 20260509180056 | 68 | 235 | 4.0 | 8.0 | 0.00 | 0.00 | 0.00 | 25 | 1004.5 |
| 20260509175551 | 68 | 155 | 3.0 | 8.0 | 0.00 | 0.00 | 0.00 | 26 | 1004.5 |
| 20260509175051 | 68 | 195 | 3.0 | 11.0 | 0.00 | 0.00 | 0.00 | 26 | 1004.7 |
| 20260509174619 | 68 | 180 | 2.0 | 12.0 | 0.00 | 0.00 | 0.00 | 26 | 1004.7 |
| 20260509174050 | 67 | 156 | 4.0 | 14.0 | 0.00 | 0.00 | 0.00 | 26 | 1004.7 |
| 20260509173550 | 67 | 240 | 4.0 | 14.0 | 0.00 | 0.00 | 0.00 | 27 | 1004.6 |
| 20260509173056 | 67 | 153 | 3.0 | 14.0 | 0.00 | 0.00 | 0.00 | 26 | 1004.6 |
| 20260509172550 | 66 | 232 | 4.0 | 9.0 | 0.00 | 0.00 | 0.00 | 25 | 1004.6 |
| 20260509172051 | 67 | 203 | 2.0 | 9.0 | 0.00 | 0.00 | 0.00 | 26 | 1004.6 |
| 20260509171553 | 67 | 295 | 2.0 | 7.0 | 0.00 | 0.00 | 0.00 | 26 | 1004.9 |
| 20260509171050 | 67 | 211 | 2.0 | 12.0 | 0.00 | 0.00 | 0.00 | 26 | 1005.0 |
| 20260509170550 | 68 | 139 | 2.0 | 12.0 | 0.00 | 0.00 | 0.00 | 26 | 1005.1 |
| 20260509170051 | 67 | 166 | 3.0 | 12.0 | 0.00 | 0.00 | 0.00 | 27 | 1005.1 |
| 20260509165551 | 66 | 236 | 3.0 | 9.0 | 0.00 | 0.00 | 0.00 | 27 | 1005.3 |
| 20260509165050 | 66 | 231 | 3.0 | 8.0 | 0.00 | 0.00 | 0.00 | 26 | 1005.4 |
| 20260509164553 | 66 | 208 | 2.0 | 11.0 | 0.00 | 0.00 | 0.00 | 27 | 1005.6 |
| 20260509164050 | 66 | 188 | 3.0 | 11.0 | 0.00 | 0.00 | 0.00 | 27 | 1005.7 |
| 20260509163551 | 66 | 162 | 3.0 | 10.0 | 0.00 | 0.00 | 0.00 | 27 | 1005.7 |
| 20260509163055 | 66 | 254 | 3.0 | 10.0 | 0.00 | 0.00 | 0.00 | 27 | 1005.7 |
| 20260509162553 | 66 | 202 | 2.0 | 10.0 | 0.00 | 0.00 | 0.00 | 27 | 1005.8 |
| 20260509162052 | 66 | 136 | 2.0 | 11.0 | 0.00 | 0.00 | 0.00 | 27 | 1005.9 |
| 20260509161555 | 66 | 294 | 4.0 | 12.0 | 0.00 | 0.00 | 0.00 | 28 | 1006.0 |
| 20260509161055 | 65 | 133 | 4.0 | 12.0 | 0.00 | 0.00 | 0.00 | 28 | 1006.0 |
| 20260509160553 | 65 | 215 | 3.0 | 8.0 | 0.00 | 0.00 | 0.00 | 30 | 1006.0 |
| 20260509160057 | 65 | 171 | 2.0 | 11.0 | 0.00 | 0.00 | 0.00 | 28 | 1006.1 |
| 20260509155556 | 64 | 178 | 3.0 | 11.0 | 0.00 | 0.00 | 0.00 | 31 | 1006.2 |
| 20260509155052 | 64 | 232 | 3.0 | 10.0 | 0.00 | 0.00 | 0.00 | 31 | 1006.5 |
| 20260509154555 | 65 | 249 | 2.0 | 10.0 | 0.00 | 0.00 | 0.00 | 30 | 1006.7 |
| 20260509154052 | 64 | 240 | 3.0 | 10.0 | 0.00 | 0.00 | 0.00 | 32 | 1006.8 |
| 20260509153552 | 64 | 237 | 2.0 | 8.0 | 0.00 | 0.00 | 0.00 | 32 | 1006.9 |
| 20260509153105 | 64 | 238 | 3.0 | 8.0 | 0.00 | 0.00 | 0.00 | 33 | 1007.0 |
| 20260509152553 | 63 | 243 | 1.0 | 11.0 | 0.00 | 0.00 | 0.00 | 36 | 1007.1 |
| 20260509152050 | 64 | 266 | 1.0 | 11.0 | 0.00 | 0.00 | 0.00 | 36 | 1007.1 |
| 20260509151555 | 63 | 0 | 2.0 | 11.0 | 0.00 | 0.00 | 0.00 | 37 | 1007.2 |
| 20260509151056 | 62 | 267 | 3.0 | 9.0 | 0.00 | 0.00 | 0.00 | 38 | 1007.5 |
| 20260509150551 | 62 | 258 | 0.0 | 7.0 | 0.00 | 0.00 | 0.00 | 40 | 1007.6 |
| 20260509150052 | 62 | 264 | 0.0 | 6.0 | 0.00 | 0.00 | 0.00 | 40 | 1007.7 |
| 20260509145551 | 61 | 180 | 1.0 | 6.0 | 0.00 | 0.00 | 0.00 | 42 | 1007.7 |
| 20260509145053 | 60 | 179 | 1.0 | 6.0 | 0.00 | 0.00 | 0.00 | 42 | 1007.8 |
| 20260509144553 | 59 | 0 | 2.0 | 5.0 | 0.00 | 0.00 | 0.00 | 43 | 1007.8 |
| 20260509144050 | 59 | 233 | 1.0 | 7.0 | 0.00 | 0.00 | 0.00 | 43 | 1007.8 |
| 20260509143552 | 59 | 232 | 2.0 | 7.0 | 0.00 | 0.00 | 0.00 | 43 | 1008.0 |
| 20260509143052 | 59 | 237 | 1.0 | 6.0 | 0.00 | 0.00 | 0.00 | 44 | 1008.0 |
| 20260509142553 | 59 | 0 | 1.0 | 7.0 | 0.00 | 0.00 | 0.00 | 42 | 1008.0 |
| 20260509142052 | 58 | 168 | 0.0 | 7.0 | 0.00 | 0.00 | 0.00 | 43 | 1008.1 |
| 20260509141554 | 58 | 163 | 1.0 | 7.0 | 0.00 | 0.00 | 0.00 | 43 | 1008.0 |
| 20260509141053 | 58 | 128 | 1.0 | 7.0 | 0.00 | 0.00 | 0.00 | 44 | 1008.1 |
| 20260509140552 | 57 | 0 | 1.0 | 7.0 | 0.00 | 0.00 | 0.00 | 44 | 1008.1 |
| 20260509140052 | 57 | 163 | 0.0 | 7.0 | 0.00 | 0.00 | 0.00 | 45 | 1008.1 |
| 20260509135553 | 56 | 164 | 1.0 | 7.0 | 0.00 | 0.00 | 0.00 | 45 | 1008.2 |
| 20260509135053 | 55 | 0 | 0.0 | 3.0 | 0.00 | 0.00 | 0.00 | 46 | 1008.1 |
| 20260509134554 | 54 | 145 | 0.0 | 7.0 | 0.00 | 0.00 | 0.00 | 47 | 1008.2 |
| 20260509134050 | 53 | 0 | 0.0 | 7.0 | 0.00 | 0.00 | 0.00 | 49 | 1008.3 |
| 20260509133553 | 53 | 132 | 1.0 | 7.0 | 0.00 | 0.00 | 0.00 | 47 | 1008.3 |
| 20260509133054 | 53 | 0 | 0.0 | 4.0 | 0.00 | 0.00 | 0.00 | 48 | 1008.3 |
| 20260509132551 | 53 | 0 | 0.0 | 4.0 | 0.00 | 0.00 | 0.00 | 49 | 1008.4 |
| 20260509132051 | 52 | 142 | 1.0 | 3.0 | 0.00 | 0.00 | 0.00 | 51 | 1008.4 |
| 20260509131550 | 52 | 148 | 0.0 | 5.0 | 0.00 | 0.00 | 0.00 | 50 | 1008.6 |
| 20260509131050 | 51 | 0 | 0.0 | 5.0 | 0.00 | 0.00 | 0.00 | 53 | 1008.6 |
| 20260509130550 | 50 | 0 | 0.0 | 4.0 | 0.00 | 0.00 | 0.00 | 53 | 1008.7 |
| 20260509130104 | 51 | 0 | 0.0 | 4.0 | 0.00 | 0.00 | 0.00 | 53 | 1008.7 |
| 20260509125553 | 50 | 144 | 0.0 | 4.0 | 0.00 | 0.00 | 0.00 | 54 | 1008.7 |
| 20260509125051 | 49 | 144 | 1.0 | 6.0 | 0.00 | 0.00 | 0.00 | 55 | 1008.9 |
| 20260509124555 | 48 | 158 | 1.0 | 6.0 | 0.00 | 0.00 | 0.00 | 55 | 1008.9 |
| 20260509124053 | 48 | 0 | 1.0 | 5.0 | 0.00 | 0.00 | 0.00 | 55 | 1008.9 |
| 20260509123551 | 48 | 140 | 0.0 | 4.0 | 0.00 | 0.00 | 0.00 | 56 | 1009.0 |
| 20260509123058 | 47 | 140 | 0.0 | 4.0 | 0.00 | 0.00 | 0.00 | 57 | 1008.9 |
| 20260509122552 | 47 | 140 | 1.0 | 4.0 | 0.00 | 0.00 | 0.00 | 57 | 1009.0 |
| 20260509122052 | 46 | 140 | 1.0 | 4.0 | 0.00 | 0.00 | 0.00 | 58 | 1009.0 |
| 20260509121614 | 46 | 135 | 1.0 | 4.0 | 0.00 | 0.00 | 0.00 | 59 | 1009.0 |
| 20260509121050 | 46 | 134 | 0.0 | 4.0 | 0.00 | 0.00 | 0.00 | 59 | 1008.9 |
| 20260509120551 | 45 | 134 | 0.0 | 3.0 | 0.00 | 0.00 | 0.00 | 61 | 1008.9 |
| 20260509120055 | 45 | 0 | 0.0 | 3.0 | 0.00 | 0.00 | 0.00 | 61 | 1008.9 |
| 20260509115550 | 45 | 126 | 1.0 | 3.0 | 0.00 | 0.00 | 0.00 | 60 | 1008.9 |
| 20260509115052 | 45 | 0 | 0.0 | 3.0 | 0.00 | 0.00 | 0.00 | 60 | 1009.0 |
| 20260509114600 | 45 | 0 | 0.0 | 4.0 | 0.00 | 0.00 | 0.00 | 61 | 1008.9 |
| 20260509114052 | 45 | 0 | 0.0 | 4.0 | 0.00 | 0.00 | 0.00 | 61 | 1008.9 |
| 20260509113551 | 45 | 126 | 0.0 | 3.0 | 0.00 | 0.00 | 0.00 | 62 | 1008.8 |
| 20260509113101 | 45 | 0 | 0.0 | 3.0 | 0.00 | 0.00 | 0.00 | 63 | 1008.8 |